STARLINK-1222, 45228

Orbit data source: Space-Track

STARLINK-1222, 45228 is a payload satellite owned by SpaceX/Seattle (US) in LEO that was launched on Mon, 17 Feb 2020 UTC via an FALCON 9 launch vehicle from the Air Force Eastern Test Range (AFETR). Payload-class satellites include a variety of spacecraft equipped with specific instruments for various scientific and technological missions. These include communications satellites like Starlink; space stations such as the ISS; scientific satellites like the Hubble; Earth observation satellites from companies like Planet Labs, Umbra, and HawkEye 360; GPS; miniature CubeSats for education and research; and military/defense satellites.

Loading next visibility...
Identifier
45228, 2020-012BC
Orbit
LEO
Country
Flag of USUS
Related business
Manufacturer
SpaceX/Seattle
Mission
Partially operational Commercial Communications
Bus & Motor
STARLINK, Unknown motor
Mass
260 kg wet, ~248 kg dry
Launch date (UTC)
2020-02-17 (7 years ago)
Launch vehicle
FALCON 9
Launch site
Air Force Eastern Test Range (AFETR)
Object type
Payload
Rocket body
Debris
Shape & HBR
Box + 1 Pan, 10.1 m
Radar Cross Section
13.562 m², Large (>1 m²)

Expand to show TLE details & history
Last TLE update: 20 hours ago

TLE from 20 hours ago
0 STARLINK-1222
1 45228U 20012BC  26253.47770367  .00035147  00000-0  37482-3 0  9992
2 45228  53.0493 168.1472 0004099  97.2292 262.9188 15.63633501364393
Epoch: 2026-09-10T11:27Z
TLE epoch observation values (Epoch: 2026-09-10T11:27:53.597Z)
Latitude
0.00001°
Longitude
6.65904°
Altitude
378.415 km
Speed
7.684 km/s
True Right ascension
11h 12m 35s
True Declination
0° 00' 00"
Sunlit
Object was in daylight at epoch
Visualization orbit readout
Latitude
Unknown
Longitude
Unknown
Altitude
Unknown
Speed
Unknown
Apparent Right ascension
Unknown
Apparent Declination
Unknown
Sunlit
N/A
Visualization observer readout
Local Sidereal Time
00:10:56
Azimuth
Unknown
Elevation
Unknown
Doppler factor
Unknown
Orbital elements
Apogee altitude
380.219 km
Perigee altitude
374.681 km
Semi-major axis
6,755.587 km
Eccentricity
0.00041
Inclination
53.0493°
RAAN
168.1472°
Arg. of periapsis
97.2292°
True anomaly
262.87219°
Mean anomaly
262.9188°
Eccentric anomaly
262.89549°
Mean motion
3.90885 °/min
Orbital period
92.1 mins
BSTAR
0.00037482
Loading maneuver chart data...
Computing Atmospheric mass density...

Documentation

Showing up to 5 results
|